www.pogodaiklimat.ru

Погода и климат >> Архив погоды >> Таиланд >> Вичан Бури


ПОГОДА в Вичан Бури

  • Прогноз погоды в Вичан Бури
  • Монитор погоды в Вичан Бури

АРХИВ ПОГОДЫ в Вичан Бури

Время (UTC), дата Ветер
(напр.,м/с)
 
Видим.   Явления Облачность Т
(С)
Тd
(С)
f
(%)
Тe
(С)
Тes
(С)
Комфортность P
(гПа)
Po
(гПа)
Тmin
(С)
Tmax
(С)
R
(мм)
R24
(мм)
S
(см)
09 15.08 Ю 5 10 км 8/3 600 м
[Cu Sc Ac trans Cs]
+33.3 +23.5 57 +44 +46 опасность
перегрева
1002.9 995.1
12 15.08 штиль 0 10 км 8/3 600 м
[Cu Sc Ac As Cs]
+29.5 +24.8 76 +42 +42 опасность
перегрева
1003.7 995.9 +34.0
15 15.08 штиль 0 7000 м гроза без осадков 9/3 300 м
[Cb cap Ac und Cs]
+28.6 +25.2 82 +42 +42 опасность
перегрева
1005.6 997.7
18 15.08 штиль 0 7000 м дымка {гроза} 10/4 600 м
[Cu Sc Ac As Cs]
+27.1 +25.2 89 +39 +39 очень
душно
1005.0 997.1
21 15.08 штиль 0 7000 м дымка 6/3 600 м
[Sc Ac trans Cs]
+26.8 +24.6 88 +38 +38 очень
душно
1004.4 996.5
00 16.08 штиль 0 10 км 10/3 50 м
[Cu Sc Ac und Cs]
+26.5 +25.2 93 +38 +39 очень
душно
1005.2 997.2 +26.3
03 16.08 штиль 0 10 км 4/1 600 м
[Cu med, cong Cs]
+30.5 +25.6 75 +45 +63 опасность
перегрева
1006.3 998.4
06 16.08 штиль 0 10 км 8/3 600 м
[Cu Sc Ac trans Cs]
+32.8 +24.6 62 +46 +59 опасность
перегрева
1004.5 996.7
09 16.08 ЮВ 3 10 км 10/3 600 м
[Cu Sc Ac und Cs]
+32.8 +24.6 62 +46 +48 опасность
перегрева
1001.8 994.0
12 16.08 штиль 0 10 км 10/3 600 м
[Cu Sc Ac As Cs]
+30.5 +25.6 75 +45 +45 опасность
перегрева
1003.3 995.5 +32.1
15 16.08 штиль 0 7000 м дымка 10/3 600 м
[Cu Sc Ac As Cs]
+28.0 +24.4 81 +39 +39 очень
душно
1006.0 998.1
18 16.08 штиль 0 7000 м дымка 9/3 600 м
[Sc Ac und Cs]
+26.5 +24.6 89 +37 +37 очень
душно
1005.5 997.5
21 16.08 штиль 0 7000 м дымка 6/3 600 м
[Sc Cs]
+26.2 +24.9 93 +37 +37 очень
душно
1005.1 997.1
00 17.08 штиль 0 10 км 10/6 600 м
[Cu Sc Ac As Cs]
+26.1 +24.5 91 +37 +37 очень
душно
1006.1 998.2 +25.6
03 17.08 штиль 0 10 км 9/4 600 м
[Cu Sc Ac und Cs]
+31.8 +24.1 64 +44 +51 опасность
перегрева
1007.5 999.7
06 17.08 В 7 10 км 9/5 600 м
[Cu Sc Ac und Cs]
+33.3 +25.0 62 +47 +49 опасность
перегрева
1005.9 998.1
09 17.08 З 6 10 км {гроза, дождь} 10/4 600 м
[Cu Sc Ac und Cs]
+29.8 +24.7 74 +42 +43 опасность
перегрева
1004.5 996.6 0.0
12 17.08 СЗ 4 8000 м дымка {гроза, дождь} 10/6 600 м
[Cu Sc Ac As Cs]
+27.4 +24.5 84 +39 +39 очень
душно
1006.1 998.1 +33.6 2
15 17.08 штиль 0 2000 м слаб. дождь {гроза} 10/6 600 м
[Cu Sc Ac As Cs]
+26.3 +24.9 92 +38 +38 очень
душно
1009.2 1001.2 0.4
18 17.08 штиль 0 7000 м дымка {гроза, дождь} 10/6 600 м
[Cu Sc Ac As Cs]
+25.7 +24.5 93 +36 +36 очень
душно
1008.3 1000.3 0.2
21 17.08 штиль 0 7000 м дымка 9/6 600 м
[Cu Sc Ac und Cs]
+25.4 +24.4 94 +35 +35 очень
душно
1008.2 1000.2
00 18.08 штиль 0 10 км 9/4 600 м
[Cu Sc Ac und Cs]
+25.7 +24.4 93 +36 +37 очень
душно
1009.8 1001.7 +25.1
03 18.08 ЮВ 5 10 км 8/4 600 м
[Cu Sc Ac trans Cs]
+30.4 +24.4 70 +42 +46 опасность
перегрева
1010.6 1002.7
06 18.08 ЮЗ 3 10 км 10/6 600 м
[Cu Sc Ac As Cs]
+32.4 +24.1 62 +45 +48 опасность
перегрева
1008.8 1000.9
09 18.08 ЮЗ 3 10 км 8/4 600 м
[Cu Sc Ac trans Cs]
+33.4 +24.3 59 +46 +48 опасность
перегрева
1006.5 998.8
12 18.08 штиль 0 10 км 8/5 600 м
[Cu Sc Ac trans Cs]
+30.5 +24.7 71 +43 +43 опасность
перегрева
1007.3 999.5 +34.1
15 18.08 штиль 0 8000 м дымка {дождь} 10/6 600 м
[Cu Sc Ac As Cs]
+26.3 +23.7 86 +36 +36 очень
душно
1009.9 1001.9 0.0
18 18.08 штиль 0 7000 м дымка {дождь} 10/6 600 м
[Cu Sc Ac As Cs]
+26.0 +24.0 89 +36 +36 очень
душно
1009.1 1001.1 0.0
21 18.08 штиль 0 7000 м дымка 10/6 600 м
[Cu Sc Ac As Cs]
+25.8 +24.1 90 +36 +36 очень
душно
1007.8 999.8
00 19.08 штиль 0 10 км 10/6 600 м
[Cu Sc Ac As Cs]
+26.2 +24.2 89 +36 +37 очень
душно
1008.5 1000.6 +25.5
03 19.08 штиль 0 10 км слаб. дождь 8/5 600 м
[Cu Sc Ac und Cs]
+29.2 +23.7 72 +40 +47 очень
душно
1009.4 1001.5 0.0
06 19.08 штиль 0 10 км {дождь} 9/6 600 м
[Cu Sc Ac As Cs]
+32.6 +24.3 62 +45 +52 опасность
перегрева
1007.3 999.5 0.0
09 19.08 З 3 10 км 8/5 600 м
[Cu Sc Ac und Cs]
+33.4 +24.3 59 +46 +48 опасность
перегрева
1004.8 997.1
12 19.08 штиль 0 10 км 8/5 600 м
[Cu Sc Ac und Cs]
+31.2 +25.6 72 +46 +46 опасность
перегрева
1005.0 997.2 +34.6
15 19.08 штиль 0 7000 м слаб. дождь 10/6 600 м
[Cu Sc Ac As Cs]
+24.6 +23.7 95 +33 +33 очень
душно
1008.9 1000.8 4
18 19.08 штиль 0 7000 м дымка {дождь} 10/6 600 м
[Cu Sc Ac As Cs]
+24.3 +23.6 96 +33 +33 очень
душно
1007.1 999.1 2
21 19.08 штиль 0 7000 м дымка 10/6 600 м
[Cu Sc Ac As Cs]
+24.2 +23.2 94 +32 +32 очень
душно
1006.1 998.0
00 20.08 штиль 0 8000 м дымка 10/3 600 м
[Cu Sc Ac As Ci fib]
+24.6 +23.6 94 +33 +34 очень
душно
1006.5 998.5 +24.0
03 20.08 штиль 0 10 км 9/3 600 м
[Cu Sc Ac und Cs]
+27.5 +23.1 77 +37 +45 очень
душно
1007.2 999.2
06 20.08 штиль 0 10 км 9/3 600 м
[Cu Sc Ac trans Cs]
+32.5 +24.7 64 +46 +57 опасность
перегрева
1005.3 997.5
09 20.08 штиль 0 10 км 10/3 600 м
[Cu Sc Ac As Cs]
+31.5 +24.5 66 +44 +47 опасность
перегрева
1002.7 994.9
12 20.08 штиль 0 8000 м гроза, ливневой дождь 10/3 300 м
[Cb cap Ac As Cs]
+27.6 +26.0 91 +41 +41 опасность
перегрева
1004.0 996.1 +32.8 2
15 20.08 ЮВ 3 6000 м гроза, ливневой дождь 10/5 300 м
[Cb cap Ac As Cs]
+24.0 +23.3 96 +32 +32 очень
душно
1006.2 998.2 44
18 20.08 штиль 0 6000 м дымка {гроза, дождь} 10/4 600 м
[Cu Sc Ac As Cs]
+24.6 +23.7 95 +33 +33 очень
душно
1005.1 997.1 5
21 20.08 штиль 0 7000 м дымка 6/3 600 м
[Cu Sc Ac As Cs]
+24.5 +23.8 96 +33 +33 очень
душно
1004.4 996.4
00 21.08 штиль 0 7000 м дымка 10/3 600 м
[Cu Sc Ac trans Cs]
+25.0 +24.3 96 +35 +35 очень
душно
1005.4 997.4 +24.1
03 21.08 ЮВ 3 10 км 10/3 600 м
[Cu Sc Ac trans Cs]
+28.5 +24.2 78 +40 +44 очень
душно
1006.8 998.9
06 21.08 штиль 0 10 км 10/3 600 м
[Cu Sc Ac und Cs]
+31.9 +24.2 64 +44 +54 опасность
перегрева
1004.9 997.1
09 21.08 штиль 0 10 км 10/3 600 м
[Cu Sc Ac trans Cs]
+31.7 +24.3 65 +44 +48 опасность
перегрева
1002.9 995.1
12 21.08 штиль 0 10 км 10/4 600 м
[Cu Sc Ac As Cs]
+30.4 +25.0 73 +44 +44 опасность
перегрева
1004.3 996.4 +32.4
15 21.08 штиль 0 7000 м дымка 10/4 600 м
[Cu Sc Ac As Cs]
+25.4 +23.5 89 +34 +34 очень
душно
1007.5 999.5
18 21.08 штиль 0 7000 м дымка 10/4 600 м
[Cu Sc Ac As Cs]
+25.1 +23.5 91 +34 +34 очень
душно
1006.6 998.7
21 21.08 штиль 0 7000 м дымка 10/3 50 м
[Cu Sc Ac und Cs]
+25.0 +23.5 91 +34 +34 очень
душно
1006.1 998.1
00 22.08 штиль 0 8000 м дымка 10/4 600 м
[Cu Sc Ac und Cs]
+25.3 +24.1 93 +35 +35 очень
душно
1007.6 999.6 +24.6
03 22.08 ЮВ 3 10 км 8/3 600 м
[Cu Sc Cs]
+29.8 +24.0 71 +41 +49 опасность
перегрева
1008.5 1000.6
06 22.08 штиль 0 10 км 9/3 600 м
[Cu Sc Ac As Cs]
+32.5 +23.9 61 +44 +56 опасность
перегрева
1006.2 998.4

 

Местоположение метеостанции Вичан Бури (Таиланд): широта 15.63 долгота 101.11 высота над уровнем моря 69 м.

В архиве по умолчанию представлена погода в Вичан Бури за последнюю неделю. Архивные данные за месяц целиком и за предыдущие месяцы, начиная с января 2011 года, Вы можете получить, выбрав интересующий диапазон дат из раскрывающегося списка и нажав кнопку "Ввод!".


*Определитесь, кто Вы:
робот инопланетянин человек

Внимание! Время в таблицах - всемирное. Для получения местного времени необходимо прибавить поправку, которая равна 7 ч.

Смотрите также архив погоды в соседних городах и на ближайших метеорологических станциях:

Погода в Буа Чум (Таиланд) (41 км)
Погода в Лаем-Чабанге (Таиланд) (66 км)
Погода в Такфа Агромете (Таиланд) (72 км)
Погода в Пхетчабуне (Таиланд) (89 км)
Погода в Чайяпхуме (Таиланд) (100 км)
Погода в Накхон Саван (Таиланд) (103 км)
Погода в Лопбури (Таиланд) (107 км)
Погода в Чайнат Агромете (Таиланд) (113 км)
Погода в Пакчонг Агромете (Таиланд) (113 км)
Погода в Утай Тани (Таиланд) (118 км)

Пояснения к столбцам:

Ветер - указаны скорость ветра в м/с - средняя за 10 мин, порывы в срок и между сроками (в фигурных скобках) и направление, откуда дует ветер: С - северный, СВ - северо-восточный, В - восточный, ЮВ - юго-восточный, Ю - южный, ЮЗ - юго-западный, З - западный, СЗ - северо-западный.
Видимость - горизонтальная дальность видимости в метрах или километрах. При видимости от 1 до 10 км при отсутствии осадков обычно наблюдается дымка, при ухудшении видимости до 1 км и менее - туман. В сухую погоду видимость может ухудшаться дымом, пылью или мглою.
Явления - указаны атмосферные явления, наблюдавшиеся в срок или в последний час перед сроком; фигурными скобками обозначены явления, наблюдавшиеся между сроками (за 1-3 часа до срока); квадратными скобками обозначены град или гололедные отложения с указанием их диаметра в мм.
Облачность - указаны через наклонную черту общая и нижняя облачность в баллах и высота нижней границы облаков в метрах; квадратными скобками обозначены формы облаков: Ci - перистые, Cs - перисто-слоистые, Cc - перисто-кучевые, Ac - высококучевые, As - высокослоистые, Sc - слоисто-кучевые, Ns - слоисто-дождевые, Cu - кучевые, Cb - кучево-дождевые. Подробнее классификацию облаков см. в Атласе облаков (PDF).
T - Температура воздуха - температура, измеренная на высоте 2 м над землей.
Td - Температура точки росы - температура, при понижении до которой содержащийся в воздухе водяной пар достигнет насыщения.
f - Относительная влажность воздуха - влажноcть воздуха, измеренная на высоте 2 м над землей.
Te - Эффективная температура - температура, которую ощущает одетый по сезону человек в тени. Характеристика душности погоды. При расчете учитывается влияние влажности воздуха и скорости ветра на теплоощущения человека.
Tes - Эффективная температура на солнце - температура, которую ощущает человек, с поправкой на солнечный нагрев. Характеристика знойности погоды. Зависит от высоты солнца над горизонтом, облачности и скорости ветра. Ночью, в пасмурную погоду, а также при ветре 12 м/с и более поправка равна нулю.
P - Атмосферное давление - приведенное к уровню моря атмосферное давление.
Po - Атмосферное давление - измеренное на уровне метеостанции атмосферное давление.
Tmin - Минимальная температура - минимум температуры воздуха на высоте 2 м над землей.
Tmax - Максимальная температура - максимум температуры воздуха на высоте 2 м над землей.
R - Количество осадков - Количество выпавших осадков за период времени, мм. При наведении курсора мыши на число - период времени, за который выпало указанное количество осадков.
R24 - Количество осадков - Количество выпавших осадков за 24 часа, мм.
S - Снежный покров - Высота снежного покрова, см. При наведении курсора мыши на число - состояние снежного покрова и степень покрытия местности в баллах.